This is the latest recevied weather packets stored in our database for station/object DO1BDB-12. If no packets are shown the sender has not sent any weather packets the latest 10 day(s).
| Time | Temp. | Humidity | Pressure | Rain* | Wind** | Luminosity | Snow |
|---|---|---|---|---|---|---|---|
| 1787981573 | 18.89° C | 76% | 100.9 hPa | - | - | - | - |
| 1787981508 | 18.33° C | 79% | 100.9 hPa | - | - | - | - |
| 1787981442 | 17.78° C | 83% | 100.9 hPa | - | - | - | - |
| 1787981376 | 17.22° C | 87% | 101 hPa | - | - | - | - |
| 1787981310 | 16.11° C | 92% | 100.9 hPa | - | - | - | - |
| 1787981244 | 15.56° C | 92% | 100.9 hPa | - | - | - | - |
| 1787981178 | 16.11° C | 89% | 100.9 hPa | - | - | - | - |
| 1787981112 | 16.67° C | 89% | 100.9 hPa | - | - | - | - |
| 1787981047 | 16.11° C | 93% | 101 hPa | - | - | - | - |
| 1787980981 | 15.56° C | 96% | 100.9 hPa | - | - | - | - |
| 1787980915 | 15° C | 97% | 101 hPa | - | - | - | - |
| 1787980849 | 15° C | 98% | 101 hPa | - | - | - | - |
| 1787980783 | 15° C | 98% | 101 hPa | - | - | - | - |
| 1787980717 | 15° C | 98% | 100.9 hPa | - | - | - | - |
| 1787980652 | 15° C | 98% | 100.9 hPa | - | - | - | - |
| 1787980586 | 15° C | 98% | 100.9 hPa | - | - | - | - |
| 1787980521 | 15° C | 98% | 100.9 hPa | - | - | - | - |
| 1787980454 | 15° C | 98% | 100.9 hPa | - | - | - | - |
| 1787980388 | 15° C | 98% | 100.9 hPa | - | - | - | - |
| 1787980322 | 15° C | 98% | 100.9 hPa | - | - | - | - |
| 1787980256 | 15° C | 99% | 100.9 hPa | - | - | - | - |
| 1787980191 | 15° C | 99% | 101 hPa | - | - | - | - |
| 1787980125 | 15° C | 99% | 101 hPa | - | - | - | - |
| 1787980059 | 15° C | 99% | 100.9 hPa | - | - | - | - |
| 1787979993 | 15° C | 99% | 101 hPa | - | - | - | - |
* Rain since midnight (hover to see other rain measurements)
** Current wind speed in m/s (hover to see current wind gust speed)